Retour au catalogue

COSMOS 1867 COOLANT

ActifLEO
NORAD 39659·DEBRIS·🇷🇺 Russia

Lancé Jul 10, 1987 depuis Baikonur Cosmodrome

Loading…

Prochains Passages (prochaines 24 heures)

TLE

FraisSource: Space-Track

Époque: Sep 14, 2026, 14:22 UTC

1 39659U 87060W   26257.59874431  .00000131  00000-0  82658-4 0  9994
2 39659  65.0086 115.1403 0018392 283.4433  76.4602 14.34155303649513

Suivez COSMOS 1867 COOLANT en temps réel avec AllMySat

Download on the App Store